Regional Weather Roundup
Issued by NWS Green Bay, WI

Home | Current Version | Previous Version | Text Only | Print | Product List | Glossary On
Versions: 1 2 3 4 5 6 7 8 9 10 11 12 13 14 15 16 17 18 19 20 21 22 23 24 25 26 27 28 29 30 31 32 33 34 35 36 37 38 39 40 41 42 43 44 45 46 47 48 49 50
000
ASUS43 KGRB 181259
RWRGRB

NORTH-CENTRAL AND NORTHEAST WISCONSIN REGIONAL WEATHER ROUNDUP
NATIONAL WEATHER SERVICE GREEN BAY WI
800 AM CDT SAT APR 18 2015

WIZ005-009-010>012-018-019-181400-
NORTH CENTRAL WISCONSIN

CITY           SKY/WX    TMP DP  RH WIND       PRES   REMARKS
IRONWOOD       PTSUNNY   39  34  81 E12       30.20R
MANITOWISH WTR NOT AVBL
ARBOR VITAE    NOT AVBL
EAGLE RIVER    NOT AVBL
LAND O LAKES   NOT AVBL
RHINELANDER    SUNNY     41  32  70 E10       30.20R
PHILLIPS       NOT AVBL
ANTIGO         NOT AVBL
TOMAHAWK       NOT AVBL
MERRILL        NOT AVBL
$$

WIZ013-073-181400-
NORTHEAST WISCONSIN

CITY           SKY/WX    TMP DP  RH WIND       PRES   REMARKS
IRON MOUNTAIN  PTSUNNY   41  33  73 N12       30.21R
MARINETTE      SUNNY     45  34  65 NE13G21   30.19R
$$

WIZ017-030-035>037-045-181400-
CENTRAL WISCONSIN

CITY           SKY/WX    TMP DP  RH WIND       PRES   REMARKS
MEDFORD        NOT AVBL
WAUSAU         SUNNY     47  32  56 NE10      30.14R
MOSINEE        SUNNY     46  32  57 NE10      30.16R
MARSHFIELD     MOSUNNY   50  31  48 E16       30.13R
WISC RAPIDS    MOSUNNY   53  28  38 E12       30.14R
STEVENS POINT  NOT AVBL
WAUPACA        NOT AVBL
SHAWANO        NOT AVBL
CLINTONVILLE   NOT AVBL
$$

WIZ038-039-048-051-181400-
FOX VALLEY

CITY           SKY/WX    TMP DP  RH WIND       PRES   REMARKS
NWS GREEN BAY  SUNNY     49  38  65 NE17      30.18R
APPLETON       NOT AVBL
OSHKOSH        MOSUNNY   49  37  63 NE14G25   30.15R
FOND DU LAC    MOSUNNY   50  35  56 NE15G24   30.15R
$$

WIZ022-050-052-181400-
EAST CENTRAL WISCONSIN

CITY           SKY/WX    TMP DP  RH WIND       PRES   REMARKS
STURGEON BAY   SUNNY     43  34  70 N14       30.22R
MANITOWOC      NOT AVBL
SHEBOYGAN      MOSUNNY   48  38  68 NE21G31   30.14R
$$

LMZ563-521-522-541>543-181400-
LAKESHORE

STATION/POSITION TIME  TEMP    WIND        PRES    VSBY  WAVE
                       AIR SEA DIR/SP/G                  HT/PER
                 (UTC) (F)     (DEG/KT/KT) (MB)    (MI)  (FT/S)
SHEBOYGAN LKSHOR 1200   42      10/ 21/ 24 1021.2R
KEWAUNEE LKSHORE 1200   45      20/ 15/ 19 1020.6R
TWO RIVERS CG    1200   44                 1020.5      6   1
NORTHPORT PIER   1200   39     350/ 14/ 20 1021.3R
SISTER BAY LKSHO 1200   43      10/ 20/ 30   N/A
STURGEON BAY CG  1200   43     330/  4     1022.6      6   1
CHAMBERS ISLAND  1200   41     350/ 14/ 17 1021.3R
MENOMINEE LKSHOR 1200   43     360/ 17/ 20 1022.4R
$$


USA.gov is the U.S. government's official web portal to all federal, state and local government web resources and services.